Terug naar catalogus

GONETS M 15

M25

ActiefCommunicatiePO
NORAD 44906·PAYLOAD·🇷🇺 Russia

Gelanceerd Dec 26, 2019 vanaf Plesetsk Cosmodrome

Loading…

Volgende Passages (komende 24 uur)

TLE

VersSource: Space-Track

Epoch: Sep 14, 2026, 14:10 UTC

1 44906U 19096B   26257.59079080 -.00000113  00000-0 -89009-3 0  9994
2 44906  82.5281  29.6699 0014879 344.0565  16.0044 12.42883483304755

Volg GONETS M 15 in realtime met AllMySat

Download on the App Store